Flag for Germany Weather past 2 weeks in Düren, North Rhine-Westphalia, Germany

Now
61 °F

Cool.


Feels Like: 61 °F
Forecast: 47 / 58 °F
Wind: 5 mph from Northwest

Location: Noervenich

Current Time: Sep 21, 2014 at 6:55:40 AM

Latest Report: Sep 21, 2014 at 6:20 AM


Visibility: 1 mi

Pressure: 29.98 "Hg

Humidity: 100%

Dew point: 61 °F

Location of DürenLocation

Historic Weather in Düren — Graph

°F

Düren temperature yesterday

Maximum temperature yesterday: 75 °F (at 3:20 PM)
Minimum temperature yesterday: 59 °F (at 3:20 AM)
Average temperature yesterday: 64 °F

Past Weeks' High & Low Weather Summary

 TemperatureHumidityPressure
High77 °F (Sep 19, 2:20 PM)100% (Sep 8, 8:20 AM)30.24 "Hg (Sep 8, 8:20 AM)
Low46 °F (Sep 12, 6:20 AM)50% (Sep 17, 3:20 PM)29.83 "Hg (Sep 18, 4:20 AM)
Average62 °F82%30.02 "Hg
* Reported Sep 6 5:20 AM — Sep 21 5:20 AM, Düren, Weather by CustomWeather, © 2014

Note: Actual official high and low records may vary slightly from our data, if they occured in-between our weather recording intervals... More about our weather records

Advertising

Düren weather history for previous 24 hours

 ConditionsComfort  
Time TempWeatherWind HumidityBarometerVisibility
5:20 AM
Sep 21
61 °FFog.3 mph100%29.98 "Hg2 mi
4:20 AM61 °FPartly cloudy.5 mph94%29.98 "Hg5 mi
3:20 AM59 °FPartly cloudy.1 mph100%29.98 "Hg5 mi
2:20 AM61 °FSprinkles. Passing clouds.2 mph94%29.98 "Hg4 mi
1:20 AM61 °FSprinkles. Partly cloudy.6 mph94%29.98 "Hg3 mi
12:49 AM61 °FSprinkles. Partly cloudy.7 mph94%29.98 "Hg3 mi
12:20 AM61 °FSprinkles. Partly cloudy.12 mph94%29.98 "Hg3 mi
11:20 PM
Sep 20
64 °FPartly cloudy.2 mph88%29.98 "Hg5 mi
10:20 PM63 °FPartly cloudy.2 mph94%29.98 "Hg5 mi
9:20 PM63 °FPartly cloudy.2 mph94%29.98 "HgN/A
8:20 PM63 °FBroken clouds.No wind94%29.95 "HgN/A
7:20 PM64 °FMild.3 mph88%29.95 "HgN/A
3:20 PM75 °FMild.6 mph69%29.92 "HgN/A
2:20 PM70 °FMild.1 mph78%29.95 "Hg6 mi
1:20 PM72 °FMild.2 mph78%29.95 "HgN/A
12:20 PM70 °FMild.1 mph83%29.98 "HgN/A
11:20 AM68 °FBroken clouds.2 mph88%29.98 "HgN/A
10:20 AM66 °FPartly sunny.No wind88%29.95 "HgN/A
9:20 AM63 °FBroken clouds.No wind94%29.95 "HgN/A
8:20 AM61 °FBroken clouds.3 mph94%29.95 "HgN/A
7:20 AM59 °FPartly cloudy.3 mph100%29.95 "HgN/A
6:20 AM59 °FPartly cloudy.1 mph100%29.92 "HgN/A
Weather by CustomWeather, © 2014

See weather overviewHow to use our weather pages